Regional Weather Roundup
Issued by NWS

Home | Current Version | Previous Version | Text Only | Print | Product List | Glossary Off
Versions: 1 2 3 4 5 6 7 8 9 10 11 12 13 14 15 16 17 18 19 20 21 22 23 24 25 26 27 28 29 30 31 32 33 34 35 36 37 38 39 40 41 42 43 44 45 46 47 48 49 50

000
ASUS43 KLSX 221307
RWRMO

WEATHER SUMMARY FOR MISSOURI
NATIONAL WEATHER SERVICE SPRINGFIELD MO
800 AM CDT TUE APR 22 2014

NOTE: "FAIR" INDICATES FEW OR NO CLOUDS BELOW 12,000 FEET WITH NO
       SIGNIFICANT WEATHER AND/OR OBSTRUCTIONS TO VISIBILITY.
       CURRENT SKY AND/OR WEATHER CONDITIONS ARE NOT AVAILABLE FOR
       CHILLICOTHE AND FARMINGTON.

MOZ001>031-035>038-043-044-053-054-221400-
...NORTHERN AND WESTERN MISSOURI...

CITY           SKY/WX    TMP DP  RH WIND       PRES   REMARKS
KANSAS CTY INT SUNNY     48  35  60 N8        30.15R
KANSAS C DTWN  SUNNY     51  33  50 N10       30.14R
LEE`S SUMMIT   SUNNY     50  34  54 N8        30.13R
ST JOSEPH      SUNNY     47  35  63 N8        30.16R
CHILLICOTHE      N/A     48  33  56 N8        30.14R
KIRKSVILLE     SUNNY     46  33  60 N12       30.11R

$$
MOZ066>068-077>081-088>096-101>105-221400-
...SOUTHWEST MISSOURI...

CITY           SKY/WX    TMP DP  RH WIND       PRES   REMARKS
SPRINGFIELD    SUNNY     53  45  74 N12       30.07R
JOPLIN         SUNNY     52  42  69 N7        30.11R

$$
MOZ032>034-039>042-045>050-055>058-069>072-221400-
...CENTRAL MISSOURI...

CITY           SKY/WX    TMP DP  RH WIND       PRES   REMARKS
COLUMBIA       SUNNY     49  40  71 N12       30.08R
JEFFERSON CITY SUNNY     51  38  60 N10G17    30.09R
ROLLA          SUNNY     49  41  74 N12       30.05R
SEDALIA        SUNNY     51  38  60 N10       30.11R
WHITEMAN AFB   SUNNY     48  35  59 N9        30.11R
OSAGE BEACH    SUNNY     52  39  62 N5        30.10S

$$
MOZ051-052-059>065-221400-
...EAST CENTRAL MISSOURI...

CITY           SKY/WX    TMP DP  RH WIND       PRES   REMARKS
ST LOUIS INTL  MOSUNNY   55  40  56 N15       30.03R
SPIRIT OF STL  SUNNY     53  41  63 NW13G18   30.03R
ST CHARLES     SUNNY     53  40  61 N13       30.03R

$$
MOZ072>076-082>087-097>100-106>115-221400-
...SOUTH CENTRAL AND SOUTHEAST MISSOURI...

CITY           SKY/WX    TMP DP  RH WIND       PRES   REMARKS
CAPE GIRARDEAU SUNNY     61  52  72 N13       29.95R
FARMINGTON     SUNNY     54  45  71 N15       30.03R
POPLAR BLUFF   SUNNY     62  51  67 N13G22    29.94R
WEST PLAINS    SUNNY     57  44  62 N10       30.03R

$$



USA.gov is the U.S. government's official web portal to all federal, state and local government web resources and services.